• In Czech Republic
  • List of Countries
  • For 7 days
  • Water Temperature
  • Satellite Maps
  • Weather Map
  • Weather Widgets
  • user-avatar
    Login

    Hourly Weather Mol

    Today, 22 October, Sunday

    Time Temperature Precipitation Wind Pressure Humidity
    00:00 +10°C° 0 mm 8 mps 754 mmHg 69%
    01:00 +10°C° 0.5 mm 8 mps 754 mmHg 73%
    02:00 +8°C° 0.5 mm 9 mps 754 mmHg 76%
    03:00 +8°C° 0.5 mm 9 mps 753 mmHg 80%
    04:00 +8°C° 1 mm 9 mps 754 mmHg 82%
    05:00 +9°C° 1 mm 8 mps 754 mmHg 84%
    06:00 +10°C° 1 mm 8 mps 754 mmHg 86%
    07:00 +10°C° 0.5 mm 8 mps 754 mmHg 84%
    08:00 +10°C° 0.5 mm 7 mps 755 mmHg 82%
    09:00 +11°C° 0.5 mm 7 mps 755 mmHg 79%
    10:00 +11°C° 0.1 mm 7 mps 755 mmHg 75%
    11:00 +11°C° 0.1 mm 7 mps 756 mmHg 71%
    12:00 +12°C° 0.1 mm 7 mps 756 mmHg 67%
    13:00 +11°C° 0.1 mm 7 mps 756 mmHg 67%
    14:00 +11°C° 0.1 mm 7 mps 756 mmHg 67%
    15:00 +11°C° 0.1 mm 6 mps 757 mmHg 67%
    16:00 +10°C° 0.2 mm 6 mps 757 mmHg 71%
    17:00 +9°C° 0.2 mm 5 mps 757 mmHg 74%
    18:00 +9°C° 0.2 mm 5 mps 758 mmHg 77%
    19:00 +9°C° 0.4 mm 5 mps 758 mmHg 78%
    20:00 +9°C° 0.4 mm 5 mps 758 mmHg 78%
    21:00 +9°C° 0.4 mm 5 mps 759 mmHg 79%
    22:00 +9°C° 0.1 mm 5 mps 759 mmHg 79%
    23:00 +9°C° 0.1 mm 5 mps 759 mmHg 79%

    Tomorrow, 23 October, Monday

    Time Temperature Precipitation Wind Pressure Humidity
    00:00 +9°C° 0.1 mm 5 mps 760 mmHg 79%
    01:00 +9°C° 0 mm 5 mps 760 mmHg 81%
    02:00 +8°C° 0 mm 5 mps 760 mmHg 82%
    03:00 +8°C° 0 mm 5 mps 760 mmHg 84%
    04:00 +8°C° 0.1 mm 4 mps 760 mmHg 85%
    05:00 +10°C° 0.1 mm 4 mps 761 mmHg 85%
    06:00 +10°C° 0.1 mm 4 mps 761 mmHg 86%
    07:00 +9°C° 0 mm 5 mps 761 mmHg 84%
    08:00 +10°C° 0 mm 5 mps 761 mmHg 82%
    09:00 +11°C° 0 mm 6 mps 762 mmHg 79%
    10:00 +12°C° 0 mm 5 mps 762 mmHg 78%
    11:00 +13°C° 0 mm 5 mps 762 mmHg 77%
    12:00 +14°C° 0 mm 5 mps 762 mmHg 76%
    13:00 +14°C° 0.1 mm 5 mps 762 mmHg 78%
    14:00 +14°C° 0.1 mm 4 mps 762 mmHg 80%
    15:00 +14°C° 0.1 mm 4 mps 762 mmHg 83%
    16:00 +13°C° 0.3 mm 4 mps 762 mmHg 86%
    17:00 +13°C° 0.3 mm 4 mps 763 mmHg 89%
    18:00 +12°C° 0.3 mm 4 mps 763 mmHg 92%
    19:00 +12°C° 0.2 mm 4 mps 763 mmHg 93%
    20:00 +12°C° 0.2 mm 4 mps 763 mmHg 93%
    21:00 +13°C° 0.2 mm 4 mps 763 mmHg 93%
    22:00 +13°C° 0 mm 4 mps 763 mmHg 93%
    23:00 +13°C° 0 mm 4 mps 763 mmHg 93%

    Day after tomorrow, 24 October, Tuesday

    Time Temperature Precipitation Wind Pressure Humidity
    00:00 +13°C° 0 mm 4 mps 763 mmHg 93%
    01:00 +13°C° 0.1 mm 4 mps 763 mmHg 94%
    02:00 +13°C° 0.1 mm 4 mps 763 mmHg 94%
    03:00 +13°C° 0.1 mm 4 mps 763 mmHg 94%
    04:00 +13°C° 0.2 mm 4 mps 763 mmHg 94%
    05:00 +13°C° 0.2 mm 4 mps 763 mmHg 94%
    06:00 +13°C° 0.2 mm 4 mps 763 mmHg 94%
    07:00 +14°C° 0.2 mm 4 mps 763 mmHg 94%
    08:00 +14°C° 0.2 mm 4 mps 763 mmHg 94%
    09:00 +14°C° 0.2 mm 5 mps 763 mmHg 93%
    10:00 +15°C° 0.7 mm 5 mps 763 mmHg 93%
    11:00 +15°C° 0.7 mm 5 mps 763 mmHg 93%
    12:00 +15°C° 0.7 mm 5 mps 763 mmHg 92%
    13:00 +16°C° 0.2 mm 5 mps 763 mmHg 92%
    14:00 +17°C° 0.2 mm 4 mps 763 mmHg 91%
    15:00 +17°C° 0.2 mm 4 mps 763 mmHg 91%
    16:00 +17°C° 0 mm 4 mps 764 mmHg 91%
    17:00 +15°C° 0 mm 4 mps 764 mmHg 91%
    18:00 +15°C° 0 mm 4 mps 764 mmHg 92%
    19:00 +15°C° 0 mm 4 mps 764 mmHg 92%
    20:00 +15°C° 0 mm 4 mps 764 mmHg 92%
    21:00 +15°C° 0 mm 4 mps 764 mmHg 92%
    22:00 +14°C° 0 mm 4 mps 764 mmHg 93%
    23:00 +14°C° 0 mm 4 mps 764 mmHg 93%

    25 October, Wednesday

    Time Temperature Precipitation Wind Pressure Humidity
    00:00 +13°C° 0 mm 4 mps 764 mmHg 94%
    01:00 +13°C° 0 mm 4 mps 764 mmHg 94%
    02:00 +13°C° 0 mm 4 mps 763 mmHg 94%
    03:00 +13°C° 0 mm 4 mps 763 mmHg 94%
    04:00 +13°C° 0 mm 4 mps 763 mmHg 94%
    05:00 +13°C° 0 mm 4 mps 763 mmHg 94%
    06:00 +13°C° 0 mm 4 mps 763 mmHg 94%
    07:00 +14°C° 0 mm 5 mps 763 mmHg 90%
    08:00 +15°C° 0 mm 5 mps 763 mmHg 87%
    09:00 +15°C° 0 mm 6 mps 763 mmHg 83%
    10:00 +16°C° 0 mm 6 mps 764 mmHg 78%
    11:00 +17°C° 0 mm 6 mps 764 mmHg 74%
    12:00 +19°C° 0 mm 6 mps 764 mmHg 70%
    13:00 +19°C° 0 mm 5 mps 764 mmHg 71%
    14:00 +19°C° 0 mm 4 mps 764 mmHg 72%
    15:00 +18°C° 0 mm 3 mps 764 mmHg 74%
    16:00 +17°C° 0 mm 3 mps 764 mmHg 78%
    17:00 +16°C° 0 mm 2 mps 765 mmHg 83%
    18:00 +15°C° 0 mm 2 mps 765 mmHg 88%
    19:00 +15°C° 0 mm 2 mps 766 mmHg 88%
    20:00 +15°C° 0 mm 2 mps 766 mmHg 89%
    21:00 +15°C° 0 mm 2 mps 767 mmHg 89%
    22:00 +15°C° 0 mm 2 mps 767 mmHg 90%
    23:00 +15°C° 0 mm 2 mps 767 mmHg 91%

    26 October, Thursday

    Time Temperature Precipitation Wind Pressure Humidity
    00:00 +15°C° 0 mm 2 mps 767 mmHg 91%
    01:00 +14°C° 0 mm 2 mps 767 mmHg 92%
    02:00 +14°C° 0 mm 2 mps 767 mmHg 92%
    03:00 +14°C° 0 mm 2 mps 767 mmHg 92%
    04:00 +14°C° 0 mm 2 mps 767 mmHg 92%
    05:00 +14°C° 0 mm 2 mps 767 mmHg 92%
    06:00 +14°C° 0 mm 2 mps 767 mmHg 92%
    07:00 +15°C° 0 mm 2 mps 767 mmHg 90%
    08:00 +15°C° 0 mm 2 mps 767 mmHg 87%
    09:00 +16°C° 0 mm 2 mps 767 mmHg 85%
    10:00 +16°C° 0 mm 2 mps 767 mmHg 83%
    11:00 +17°C° 0 mm 2 mps 767 mmHg 82%
    12:00 +17°C° 0 mm 2 mps 767 mmHg 80%
    13:00 +17°C° 0 mm 2 mps 767 mmHg 80%
    14:00 +17°C° 0 mm 2 mps 766 mmHg 81%
    15:00 +18°C° 0 mm 2 mps 766 mmHg 82%
    16:00 +18°C° 0 mm 1 mps 766 mmHg 84%
    17:00 +16°C° 0 mm 1 mps 766 mmHg 87%
    18:00 +16°C° 0 mm 1 mps 766 mmHg 90%
    19:00 +15°C° 0 mm 1 mps 765 mmHg 91%
    20:00 +15°C° 0 mm 2 mps 765 mmHg 91%
    21:00 +14°C° 0 mm 2 mps 765 mmHg 92%
    22:00 +14°C° 0 mm 2 mps 765 mmHg 91%
    23:00 +13°C° 0 mm 2 mps 764 mmHg 91%

    27 October, Friday

    Time Temperature Precipitation Wind Pressure Humidity
    00:00 +12°C° 0 mm 3 mps 764 mmHg 91%
    01:00 +12°C° 0 mm 3 mps 763 mmHg 90%
    02:00 +12°C° 0 mm 3 mps 763 mmHg 90%
    03:00 +11°C° 0 mm 3 mps 762 mmHg 90%
    04:00 +12°C° 0 mm 3 mps 761 mmHg 90%
    05:00 +12°C° 0 mm 4 mps 761 mmHg 91%
    06:00 +12°C° 0 mm 4 mps 760 mmHg 92%
    07:00 +13°C° 0 mm 5 mps 760 mmHg 89%
    08:00 +14°C° 0 mm 5 mps 760 mmHg 87%
    09:00 +14°C° 0 mm 6 mps 759 mmHg 85%
    10:00 +15°C° 0.1 mm 6 mps 759 mmHg 84%
    11:00 +15°C° 0.1 mm 6 mps 759 mmHg 83%
    12:00 +15°C° 0.1 mm 7 mps 759 mmHg 82%
    13:00 +14°C° 0.1 mm 7 mps 759 mmHg 82%
    14:00 +14°C° 0.1 mm 6 mps 760 mmHg 82%
    15:00 +14°C° 0.1 mm 6 mps 760 mmHg 82%
    16:00 +13°C° 0.1 mm 5 mps 761 mmHg 83%
    17:00 +12°C° 0.1 mm 4 mps 761 mmHg 85%
    18:00 +10°C° 0.1 mm 3 mps 762 mmHg 86%
    19:00 +10°C° 0 mm 3 mps 762 mmHg 88%
    20:00 +10°C° 0 mm 2 mps 762 mmHg 89%
    21:00 +9°C° 0 mm 2 mps 762 mmHg 90%
    22:00 +9°C° 0 mm 2 mps 762 mmHg 91%
    23:00 +9°C° 0 mm 3 mps 762 mmHg 92%
    Show more